This demonstration page uses our WeatherBlox Daily Observations layout. Learn more.

Left ArrowRight Arrow

39.92423, -83.80882

Hourly Observations for November 25, 2018

Temp ( °F °C ) Dew Point ( °F °C ) Humidity (%) Winds ( mph kmh ) Pressure ( in mb ) Visibility ( mi km ) Precip ( " mm )
12:56 am 00:56 Clear with Mist and Fog 43 6.1 43 6.1 100 100 SSW 8 13 29.82 1010 5 8.0467 N/A
1:56 am 01:56 Clear with Mist and Fog 41 5 41 5 100 100 SSW 8 13 29.83 1010 3 4.82802 N/A
2:35 am 02:35 Clear with Mist and Fog 41 5 41 5 100 100 SSW 7 11 29.85 1011 2.5 4.02335 N/A
2:56 am 02:56 Clear with Mist and Fog 41 5 41 5 100 100 SW 7 11 29.85 1011 2.5 4.02335 N/A
3:28 am 03:28 Clear with Mist and Fog 41 5 41 5 100 100 WSW 7 11 29.85 1011 3 4.82802 N/A
3:56 am 03:56 Clear with Mist and Fog 41 5 41 5 100 100 SW 8 13 29.85 1011 3 4.82802 N/A
4:56 am 04:56 Clear with Mist and Fog 40 4.4 40 4.4 100 100 SW 7 11 29.86 1011 3 4.82802 N/A
5:56 am 05:56 Clear with Mist and Fog 40 4.4 40 4.4 100 100 SW 3 6 29.88 1012 4 6.43736 N/A
6:56 am 06:56 Clear with Mist and Fog 39 3.9 39 3.9 100 100 SSW 5 7 29.9 1012 1.75 2.816345 N/A
7:08 am 07:08 Clear with Mist and Fog 39 4 39 4 100 100 SW 3 6 29.91 1013 0.75 1.207005 N/A
7:15 am 07:15 Clear with Fog 39 4 39 4 100 100 SW 5 7 29.91 1013 0.5 0.80467 N/A
7:33 am 07:33 Sunny with Fog 37 3 37 3 100 100 N N/A 29.91 1013 0.25 0.402335 N/A
7:40 am 07:40 Mostly Cloudy with Fog 37 3 37 3 100 100 N N/A 29.91 1013 5 8.0467 N/A
7:56 am 07:56 Mostly Cloudy with Fog 38 3.3 38 3.3 100 100 S 5 7 29.9 1013 0.25 0.402335 N/A
8:12 am 08:12 Sunny with Fog 37 3 37 3 100 100 S 5 7 29.91 1013 0.5 0.80467 N/A
8:21 am 08:21 Sunny with Mist and Fog 41 5 41 5 100 100 SSW 3 6 29.91 1013 1 1.60934 N/A
8:28 am 08:28 Sunny with Mist and Fog 41 5 41 5 100 100 SSW 3 6 29.91 1013 1.5 2.41401 N/A
8:46 am 08:46 Sunny with Mist and Fog 39 4 39 4 100 100 N N/A 29.91 1013 0.75 1.207005 N/A
8:56 am 08:56 Sunny with Mist and Fog 42 5.6 42 5.6 100 100 N N/A 29.91 1013 0.75 1.207005 N/A
8:59 am 08:59 Sunny with Mist and Fog 43 6 43 6 100 100 N N/A 29.91 1013 1.25 2.011675 N/A
9:22 am 09:22 Sunny with Mist and Fog 43 6 43 6 100 100 SW 5 7 29.94 1014 2 3.21868 N/A
9:34 am 09:34 Sunny with Mist and Fog 43 6 43 6 100 100 SW 5 7 29.94 1014 1.75 2.816345 N/A
9:40 am 09:40 Partly Cloudy with Mist and Fog 45 7 45 7 100 100 SW 5 7 29.94 1014 2 3.21868 N/A
9:56 am 09:56 Partly Cloudy with Mist and Fog 45 7.2 45 7.2 100 100 SSW 5 7 29.92 1013 2.5 4.02335 N/A
10:03 am 10:03 Partly Cloudy with Mist and Fog 46 8 45 7 93 93 S 5 7 29.94 1014 4 6.43736 N/A
10:56 am 10:56 Sunny 49 9.4 44 6.7 83 83 N N/A 29.92 1013 10 16.0934 N/A
11:56 am 11:56 Sunny 51 10.6 42 5.6 71 71 SE 6 9 29.9 1013 10 16.0934 N/A
12:56 pm 12:56 Sunny 52 11.1 43 6.1 72 72 S 8 13 29.88 1012 10 16.0934 N/A
1:56 pm 13:56 Sunny 51 10.6 46 7.8 83 83 SE 9 15 29.86 1011 10 16.0934 N/A
2:56 pm 14:56 Sunny 49 9.4 46 7.8 90 90 SE 13 20 29.84 1010 10 16.0934 N/A
3:56 pm 15:56 Sunny 49 9.4 46 7.8 90 90 ESE 8 13 29.83 1010 10 16.0934 N/A
4:56 pm 16:56 Sunny 49 9.4 47 8.3 93 93 E 12 19 29.81 1009 10 16.0934 N/A
5:56 pm 17:56 Clear 48 8.9 46 7.8 93 93 ESE 16 26 29.76 1008 10 16.0934 N/A
6:56 pm 18:56 Clear 49 9.4 46 7.8 90 90 ESE 17 28 29.72 1006 10 16.0934 N/A
7:56 pm 19:56 Partly Cloudy 48 8.9 46 7.8 93 93 SE 14 22 29.71 1006 10 16.0934 N/A
8:56 pm 20:56 Mostly Cloudy 48 8.9 46 7.8 93 93 ESE 15 24 29.65 1004 10 16.0934 N/A
9:56 pm 21:56 Cloudy 49 9.4 45 7.2 86 86 SE 18 30 29.59 1002 10 16.0934 N/A
10:56 pm 22:56 Cloudy 48 8.9 45 7.2 89 89 SE 17 28 29.55 1001 10 16.0934 N/A
11:56 pm 23:56 Cloudy with Light Rain 48 8.9 45 7.2 89 89 SE 16 26 29.47 998 10 16.0934 N/A

Powered by AerisWeather